Home > Weather > St. Albert > Past weeks

Flag for Canada Weather for the Past 2 Weeks in St. Albert, Alberta, Canada

Now
60 °F

Refreshingly cool.


Feels Like: 60 °F
Forecast: 38 / 69 °F
Wind: 3 mph from South

Location: Edmonton Municipal

Current Time: May 6, 2016 at 11:59:30 AM

Latest Report: May 6, 2016 at 11:00 AM


Visibility: N/A

Pressure: 30.26 "Hg (28.01 "Hg at 653m altitude)

Humidity: 30%

Dew Point: 28 °F

Location of St. AlbertLocation

Historic Weather in St. Albert — Graph

°F

St. Albert Temperature Yesterday

Maximum temperature yesterday: 64 °F (at 6:00 PM)
Minimum temperature yesterday: 52 °F (at 9:00 AM)
Average temperature yesterday: 57 °F

High & Low Weather Summary for the Past Weeks

 TemperatureHumidityPressure
High85 °F (May 3, 4:00 PM)100% (Apr 25, 10:00 AM)30.27 "Hg (Apr 25, 10:00 AM)
Low33 °F (Apr 24, 10:00 AM)12% (May 3, 3:00 PM)29.68 "Hg (May 4, 5:00 PM)
Average53 °F52%30.03 "Hg
* Reported Apr 21 10:00 AM — May 6 10:00 AM, St. Albert, Weather by CustomWeather, © 2016

Note: Actual official high and low records may vary slightly from our data, if they occured in-between our weather recording intervals... More about our weather records

Advertising

St. Albert Weather History for the Previous 24 Hours

Scroll right to see more
 ConditionsComfort  
Time TempWeatherWind HumidityBarometerVisibility
10:00 AM
Fri, May 6
56 °FRefreshingly cool.2 mph32%30.27 "HgN/A
9:00 AM52 °FCool.1 mph37%30.27 "HgN/A
8:00 AM47 °FCool.2 mph42%30.27 "HgN/A
7:00 AM44 °FQuite cool.2 mph49%30.26 "HgN/A
6:00 AM40 °FQuite cool.2 mph57%30.24 "HgN/A
5:00 AM41 °FQuite cool.3 mph55%30.22 "HgN/A
4:00 AM42 °FQuite cool.2 mph50%30.19 "HgN/A
3:00 AM44 °FQuite cool.3 mph45%30.18 "HgN/A
2:00 AM46 °FCool.2 mph40%30.17 "HgN/A
1:00 AM50 °FCool.6 mph34%30.16 "HgN/A
12:00 AM52 °FCool.6 mph31%30.14 "HgN/A
11:00 PM
Thu, May 5
55 °FRefreshingly cool.7 mph29%30.11 "HgN/A
10:00 PM58 °FRefreshingly cool.8 mph25%30.08 "HgN/A
9:00 PM61 °FRefreshingly cool.8 mph20%30.05 "HgN/A
8:00 PM63 °FMild.9 mph18%30.03 "HgN/A
7:00 PM64 °FMild.9 mph16%30.01 "HgN/A
6:00 PM64 °FMild.10 mph17%30.01 "HgN/A
5:00 PM63 °FMild.9 mph21%30.01 "HgN/A
4:00 PM60 °FRefreshingly cool.10 mph24%30.02 "HgN/A
3:00 PM59 °FRefreshingly cool.10 mph26%30.04 "HgN/A
2:00 PM58 °FRefreshingly cool.8 mph28%30.04 "HgN/A
1:00 PM54 °FCool.3 mph41%30.05 "HgN/A
12:00 PM53 °FCool.10 mph44%30.06 "HgN/A
11:00 AM53 °FCool.10 mph42%30.05 "HgN/A
Weather by CustomWeather, © 2016

See weather overviewHow to use our weather pages